Location: Newark
(25.1987°N, 100.3705°W)
Time: 03:13:46
(UTC+00:00)

Envisat - Pass Details

Date: 08 August 2021
Orbit: 764 x 766 km, 98.2° (Epoch: 26 September)

Event Time Altitude Azimuth Distance (km) Brightness Sun altitude
Rises 10:30:51 0° 43° (NE) 3,228 7.6 -21.7°
Reaches altitude 10° 10:35:13 10° 79° (E) 2,297 6.5 -20.9°
Maximum altitude 10:36:31 11° 94° (E) 2,232 6.2 -20.6°
Drops below altitude 10° 10:37:49 10° 110° (ESE) 2,294 6.0 -20.4°
Sets 10:42:07 0° 145° (SE) 3,215 6.3 -19.5°
